GFSSGP_925_spd_000.txt.gz
Wind_Speed
14 13 8 7 7 6 8 2 5 6 4 3 4 3 5 6 5 6 3 6 5 3 9 9 14 16 16 16 15 16 18 17 15 15 14 13 14 16 16 15 14 13 11 11 10 9 10 8 9
13 10 6 4 7 8 3 3 6 7 3 4 4 4 5 4 1 1 4 7 5 3 5 8 13 17 18 19 18 19 19 18 18 17 16 16 16 17 18 17 15 14 13 12 12 11 11 10 9
11 8 8 5 6 9 5 4 5 3 6 6 3 4 1 1 3 1 3 6 6 5 6 8 14 18 17 16 19 18 19 19 19 19 20 21 20 19 19 19 16 14 13 12 13 12 12 12 10
8 7 5 9 8 1 7 9 7 6 5 7 6 5 3 2 5 4 4 6 6 7 8 10 16 17 18 17 19 20 20 20 19 21 24 24 24 23 21 20 18 15 13 11 12 13 14 14 11
9 6 10 8 8 5 7 9 9 9 7 4 5 4 2 4 4 6 4 4 7 8 9 10 13 14 15 15 17 18 19 19 20 22 24 25 27 25 23 22 20 17 14 12 13 12 13 15 13
8 4 9 11 3 4 7 6 7 8 7 4 5 5 3 4 8 5 4 3 4 5 5 6 9 10 13 15 16 18 19 20 20 21 21 22 23 24 24 23 22 19 17 15 14 13 14 13 14
12 8 14 12 11 9 4 5 8 7 8 7 1 6 2 8 7 7 5 4 3 2 3 6 8 11 13 15 17 18 19 21 22 23 19 19 20 19 22 22 23 19 18 15 14 16 13 13 13
8 8 16 13 12 10 3 3 5 8 8 6 5 5 5 8 10 8 6 5 4 3 6 8 11 12 11 11 13 18 21 22 20 17 16 16 18 18 19 20 21 19 18 14 14 15 14 12 14
6 11 12 12 13 12 4 11 4 3 8 7 8 7 2 8 11 10 8 6 4 6 8 10 11 10 10 12 13 17 14 16 15 13 12 13 13 13 12 16 19 18 17 15 13 14 14 13 14
11 12 15 9 11 14 16 9 13 7 8 10 9 5 6 11 12 11 9 7 5 7 9 10 8 10 10 11 12 13 13 11 12 10 10 11 12 12 12 13 12 18 17 17 13 13 13 14 16
13 15 14 14 14 16 18 13 10 11 12 10 9 11 12 12 12 11 7 4 5 6 8 9 8 8 9 11 13 12 11 11 10 9 9 8 9 12 12 13 15 18 17 16 14 13 14 15 16
14 16 16 15 12 12 9 7 9 12 12 4 5 4 13 14 12 11 7 4 4 7 8 8 8 8 9 10 11 11 11 10 10 8 7 7 7 8 8 11 15 18 19 18 13 13 13 16 18
14 17 14 13 12 9 4 9 8 10 7 6 6 10 14 12 11 8 5 2 3 7 8 8 8 8 8 10 9 10 9 9 8 8 7 7 7 7 7 9 12 17 17 16 14 13 13 16 17
12 11 13 11 11 6 8 4 4 8 2 9 10 12 12 12 11 9 6 3 3 5 6 7 7 7 8 8 9 10 8 8 7 7 7 8 7 7 5 5 9 14 16 17 13 13 15 16 16
11 14 13 13 10 6 6 9 10 9 4 9 12 11 12 11 12 10 6 4 3 3 4 7 6 6 7 8 8 8 8 7 8 7 7 9 8 7 4 6 8 11 11 12 12 13 14 16 15
14 15 15 13 9 6 7 10 10 6 9 13 13 13 12 13 13 10 7 5 2 2 4 6 7 8 9 10 10 9 8 7 8 9 9 9 10 10 6 8 11 10 11 13 15 17 18 18 17
15 15 19 10 11 6 11 13 8 7 9 13 12 14 13 13 13 12 10 7 3 1 3 6 7 8 9 9 9 9 8 7 5 4 8 8 10 10 10 8 10 12 12 13 14 16 17 17 17
16 13 12 13 10 10 12 14 14 14 13 12 13 14 15 14 14 14 12 8 4 1 2 5 6 7 10 9 7 8 6 5 5 4 7 7 7 8 10 9 10 12 12 13 14 14 16 18 17
13 12 14 11 6 10 15 15 15 15 17 13 14 14 16 15 13 15 13 9 5 2 2 5 5 7 9 10 12 11 11 8 4 4 7 10 9 7 9 9 10 11 12 13 14 14 14 12 14
15 17 17 11 10 9 16 17 18 17 17 13 13 14 16 15 15 15 14 10 6 2 2 4 4 6 8 9 9 9 8 6 4 8 9 6 3 5 8 11 13 13 12 11 13 14 13 13 16
19 17 14 12 12 12 16 18 13 8 10 10 11 12 15 17 17 16 16 12 8 5 3 1 3 5 6 7 9 9 2 4 4 7 11 12 3 4 7 11 14 14 13 14 15 15 14 17 14
20 15 15 14 13 12 4 15 14 11 12 12 12 12 14 16 17 16 16 14 10 7 5 1 2 5 5 8 9 10 7 6 4 4 5 9 8 6 7 11 14 14 13 13 16 15 15 19 18
16 13 12 14 12 12 16 8 10 6 10 9 8 12 13 16 18 18 16 16 12 9 7 2 1 4 5 8 10 10 10 9 4 2 5 9 10 10 7 9 12 12 13 15 17 17 17 20 19
14 8 9 8 11 12 15 10 10 3 4 6 6 2 10 15 18 17 18 16 13 11 8 4 2 4 4 6 9 10 10 10 9 2 3 6 9 11 9 10 10 11 12 16 19 18 21 22 19
16 13 9 10 9 11 2 6 11 10 8 9 9 4 9 15 18 18 17 16 15 13 10 6 3 4 4 5 7 8 10 9 7 7 3 5 12 13 12 11 11 11 12 17 20 20 21 22 22
19 17 11 10 11 11 6 6 4 2 5 6 4 4 10 17 18 18 17 17 16 14 12 7 4 5 4 6 6 7 10 10 11 9 10 13 11 10 12 13 14 14 13 17 20 19 19 23 18
14 15 16 15 14 8 12 6 11 6 7 4 3 6 12 17 18 18 18 17 16 15 13 10 6 5 5 5 5 6 9 9 7 10 11 10 9 8 7 10 16 14 16 17 18 20 18 20 26
21 15 10 10 13 13 9 7 6 3 5 4 7 9 13 17 18 17 15 17 16 15 13 11 8 6 7 5 5 7 7 9 8 8 9 9 5 9 11 10 8 9 14 16 19 18 17 18 20
12 16 13 13 13 12 9 5 5 2 3 2 8 11 15 17 18 18 15 19 18 17 14 11 10 7 8 6 6 6 7 8 9 9 10 10 8 9 12 12 11 9 9 11 14 17 18 17 19
22 22 21 11 15 10 10 9 4 4 1 1 9 13 17 18 17 17 17 20 20 18 15 12 11 9 9 8 7 7 7 8 9 10 11 12 13 13 13 17 11 8 7 5 6 13 14 16 18

GFSSGP_925_spd_003.txt.gz
Wind_Speed
13 13 7 7 7 8 13 3 6 10 3 5 3 7 12 10 9 4 6 4 3 3 6 7 11 14 13 13 14 14 14 15 14 14 15 14 14 15 15 15 14 13 12 12 12 11 11 12 13
13 9 7 8 8 12 0 8 7 10 9 1 3 5 6 5 6 3 5 7 5 3 4 7 10 9 14 15 15 16 15 15 14 14 15 15 15 16 17 17 15 14 14 14 14 13 13 13 13
10 8 9 10 12 13 10 8 10 7 1 8 5 2 5 8 4 3 6 6 5 4 6 7 11 13 15 16 16 17 18 18 16 16 18 18 19 19 19 19 18 16 15 14 14 14 14 14 13
10 8 7 9 17 9 6 13 10 13 5 5 6 8 6 6 3 2 5 4 5 6 4 5 8 13 17 17 17 17 18 17 17 18 20 21 22 23 22 21 21 18 16 15 13 12 14 15 14
12 8 11 16 15 9 4 10 10 9 8 3 2 7 1 8 4 4 3 4 5 7 6 5 8 12 15 15 13 14 14 15 16 17 17 19 20 21 21 22 22 21 18 17 15 14 12 14 15
8 10 12 14 7 8 4 5 7 11 7 2 4 6 2 13 7 5 4 4 4 4 3 5 7 9 9 10 13 15 17 19 19 17 18 19 21 21 20 23 23 23 20 19 17 16 15 14 15
14 11 16 16 16 13 5 5 11 11 12 8 3 8 1 7 7 6 6 5 4 3 3 4 7 8 13 10 12 14 15 16 20 23 22 18 19 20 20 19 22 21 22 19 18 18 16 13 12
12 12 20 16 13 12 11 1 11 7 9 5 3 5 9 8 10 8 8 7 5 5 5 6 9 10 10 10 9 13 16 18 19 20 17 16 17 19 20 20 19 20 21 19 19 17 16 12 13
13 13 15 18 17 10 12 12 3 4 10 6 5 7 5 6 10 10 9 7 6 5 6 8 9 9 10 11 12 14 12 11 13 13 12 12 12 14 14 17 18 18 20 18 16 15 15 12 12
15 14 20 15 14 12 16 17 17 6 10 8 9 7 5 8 11 11 11 10 7 6 6 8 7 8 9 10 10 13 13 11 14 13 12 11 12 13 13 10 12 17 18 17 16 15 15 14 15
20 18 18 17 15 14 15 17 9 8 10 8 3 7 14 13 13 13 11 4 4 4 6 7 7 8 8 9 10 12 9 10 12 13 11 12 10 13 11 13 14 14 18 18 18 15 16 17 17
21 19 19 16 19 16 13 10 9 7 10 4 5 4 8 12 12 13 10 5 5 3 6 6 6 7 7 8 10 11 10 10 12 11 8 10 10 10 9 10 13 16 18 17 16 19 16 18 16
18 17 21 22 17 16 13 9 11 11 6 4 5 7 10 12 12 11 8 5 3 4 4 5 5 6 7 8 10 11 11 13 10 9 9 10 10 7 8 10 14 16 19 19 17 15 17 16 14
22 24 19 17 17 15 12 16 6 12 1 4 9 11 10 9 13 11 9 7 4 3 4 4 5 5 6 9 11 12 12 12 12 7 8 9 10 8 7 9 12 15 21 20 19 16 13 13 17
20 19 20 18 18 16 12 18 16 12 9 10 9 10 13 13 13 13 12 8 5 4 3 4 4 5 7 11 10 11 12 11 11 9 6 11 11 10 7 7 9 13 16 17 18 17 12 16 19
19 23 19 21 23 15 10 20 16 14 12 12 13 13 11 12 11 13 10 9 6 4 3 3 4 5 7 10 12 10 10 9 9 7 9 12 12 10 7 7 6 8 13 16 17 17 17 19 21
20 18 22 20 12 14 17 20 19 7 11 12 13 12 11 11 12 13 12 11 7 5 4 3 3 5 8 9 8 9 9 7 7 7 8 13 12 12 9 8 8 9 11 12 16 18 18 19 18
21 23 20 17 14 13 16 19 19 16 16 16 16 12 11 13 15 16 14 11 8 5 5 2 3 5 8 12 8 7 7 5 4 5 8 11 11 10 11 9 9 11 11 12 9 14 15 19 18
22 20 17 13 7 14 10 17 20 20 15 17 17 12 12 14 13 17 16 13 9 6 6 3 2 4 7 10 15 11 7 4 3 5 8 10 11 12 10 8 10 10 11 11 13 14 14 15 18
24 20 19 15 14 9 13 19 20 20 21 20 18 14 11 13 14 16 17 15 11 8 6 3 2 2 5 7 9 9 6 5 5 8 6 4 3 8 8 9 12 11 11 11 11 11 16 11 15
23 20 16 17 15 10 13 23 22 15 11 14 12 7 10 14 16 16 16 16 12 9 7 4 1 1 3 5 4 6 6 3 3 7 8 6 2 6 8 11 11 12 12 12 11 9 8 11 8
21 18 18 15 14 13 14 16 16 16 10 11 13 13 11 13 16 16 15 16 13 10 8 5 3 1 2 6 6 5 5 7 4 4 7 5 4 4 10 12 14 14 14 14 12 9 9 15 15
18 17 15 12 15 17 18 12 16 11 10 7 10 14 13 15 17 18 16 17 14 10 10 6 4 4 2 5 7 9 9 7 4 2 5 10 8 5 6 13 14 13 9 12 11 10 10 13 17
20 14 14 9 11 15 18 15 15 9 2 5 5 4 13 15 17 17 19 17 14 11 11 8 5 4 2 3 5 6 7 9 9 5 4 7 9 6 7 12 11 12 11 14 15 13 16 18 18
15 13 10 12 13 13 15 9 10 14 6 7 4 7 10 14 17 17 17 16 15 13 12 9 7 6 2 3 3 5 8 9 11 8 7 8 9 12 7 10 9 10 13 16 16 17 20 23 25
22 19 12 13 13 13 10 7 6 1 2 3 4 3 12 14 16 18 17 17 16 14 12 9 7 7 4 4 3 5 8 12 13 13 11 7 8 9 9 12 11 10 14 18 18 21 22 25 24
17 20 20 18 17 12 8 8 8 6 11 9 5 4 11 15 17 18 16 17 15 15 13 10 8 7 5 5 4 4 7 10 12 12 11 11 9 8 10 13 12 13 16 20 20 25 22 22 22
22 20 18 12 16 16 13 10 4 10 2 7 6 8 13 17 17 16 16 17 15 15 14 11 9 8 7 6 4 6 7 9 9 9 9 8 9 11 12 10 14 16 16 19 22 21 18 22 22
20 21 14 14 12 11 10 8 8 5 5 3 9 10 16 17 17 16 15 17 16 16 15 13 11 9 8 7 6 6 8 9 8 10 12 12 11 11 12 10 12 15 17 17 20 20 20 18 17
26 26 22 10 17 12 13 2 8 7 7 2 11 13 16 17 16 16 15 18 17 17 16 14 12 11 10 9 8 8 8 9 10 12 14 14 14 13 12 11 13 14 14 17 19 19 19 22 22

GFSSGP_925_spd_006.txt.gz
Wind_Speed
12 12 11 15 6 8 16 11 7 8 13 12 8 6 11 9 11 4 7 8 4 13 12 11 10 13 12 12 12 10 11 10 11 11 12 12 13 13 13 13 11 10 9 10 11 12 12 13 13
11 10 16 7 10 14 3 10 7 11 10 10 5 5 5 10 12 9 13 6 5 7 5 8 9 8 8 12 13 12 12 11 12 12 12 13 15 15 15 14 13 12 11 12 12 13 13 13 14
10 13 8 8 14 14 7 3 10 11 9 3 8 3 2 6 9 6 11 4 3 3 11 11 9 8 9 12 14 14 12 12 13 13 14 14 17 17 16 16 17 16 14 13 13 13 14 14 15
9 10 7 10 16 12 8 7 8 10 12 5 4 4 8 8 10 9 6 5 4 5 6 8 8 8 10 13 14 14 14 14 15 15 15 16 17 18 18 18 18 18 18 16 14 14 13 14 15
16 7 12 18 18 7 18 10 6 8 9 11 8 2 7 10 12 11 7 4 3 4 4 5 1 5 7 10 10 11 13 13 14 14 15 15 16 16 16 17 18 20 19 19 17 16 13 12 12
8 10 12 15 16 5 9 5 5 10 11 6 4 1 7 16 11 9 8 6 3 1 1 1 2 5 7 9 10 12 15 17 17 15 14 14 17 19 19 20 20 21 21 22 19 17 15 14 12
13 12 17 19 19 19 16 4 5 10 8 7 10 5 5 15 11 9 9 7 3 2 4 5 4 8 12 9 9 10 11 13 16 17 18 17 17 19 21 20 20 20 22 22 20 18 17 15 12
12 12 21 18 18 17 6 8 9 11 5 5 2 3 4 10 13 9 9 11 8 11 8 2 7 6 5 7 6 9 8 15 13 16 14 12 14 17 19 20 21 21 21 21 21 19 18 15 13
17 13 16 21 21 14 14 14 10 8 7 12 5 5 6 10 11 10 11 10 8 5 6 7 2 4 7 9 10 6 12 12 8 10 10 11 12 12 14 16 18 17 20 20 21 18 16 14 13
17 14 23 22 20 14 17 14 17 16 12 11 12 11 12 13 14 13 12 11 15 8 1 4 2 4 6 8 9 9 12 8 10 14 13 12 11 14 15 13 11 12 16 19 19 16 15 14 13
21 21 22 24 20 16 19 18 17 15 10 8 7 0 15 13 13 12 14 13 9 5 1 3 5 4 5 9 10 12 12 7 8 13 12 12 11 13 14 14 12 12 16 18 18 17 17 16 16
24 26 24 25 18 19 19 22 18 11 10 9 0 1 13 15 10 11 12 4 7 5 1 1 3 3 6 8 11 12 9 8 16 13 13 10 12 13 13 10 12 15 15 21 19 20 18 17 21
27 26 25 19 14 22 24 22 18 12 10 6 4 7 7 6 11 12 6 2 5 1 1 2 2 4 5 8 10 11 14 15 13 14 15 11 12 13 9 10 11 13 16 18 21 22 22 20 21
24 25 23 18 25 23 22 18 15 20 10 4 7 8 11 11 9 11 11 6 7 3 3 2 3 3 5 8 13 13 13 13 15 14 15 10 12 12 11 10 12 13 15 19 19 18 18 18 21
24 26 23 23 18 22 20 19 16 19 12 16 12 13 11 7 11 13 16 11 7 5 5 4 6 6 6 11 10 11 13 14 16 15 10 11 10 13 12 10 11 13 16 17 20 19 13 12 18
24 26 22 23 22 25 22 19 16 16 15 16 14 11 13 13 11 13 15 15 9 6 5 4 4 5 6 9 11 15 11 11 12 14 12 14 13 10 12 9 9 9 15 20 21 20 14 14 18
21 18 25 24 23 24 21 18 16 17 16 14 11 11 10 9 10 13 13 14 10 8 5 4 2 6 6 11 14 14 9 7 10 12 12 12 11 10 12 10 7 6 12 20 21 19 17 17 19
20 23 22 23 23 22 14 17 15 18 19 8 18 14 11 9 13 16 15 14 12 9 6 4 3 4 6 12 14 7 7 6 8 7 10 10 10 9 10 12 9 9 10 16 18 17 19 20 21
25 23 24 23 17 8 16 22 16 12 14 18 15 9 7 10 14 20 17 15 12 10 7 7 4 3 6 10 9 7 7 7 2 5 7 8 12 10 10 11 10 12 11 14 16 18 20 18 19
27 26 23 20 19 15 15 14 13 14 17 19 17 13 9 13 16 15 18 15 14 11 10 7 5 2 4 8 7 3 4 5 4 6 6 4 3 8 9 9 12 13 11 11 14 17 12 13 17
26 25 21 23 17 16 15 14 13 21 19 15 12 5 4 14 14 14 14 16 14 12 10 9 4 2 2 6 7 6 8 8 6 5 7 4 2 6 9 9 11 12 11 11 11 10 8 10 11
25 25 25 18 15 13 14 13 13 15 17 12 5 8 9 15 15 15 14 16 15 13 12 8 5 3 3 5 9 10 10 11 6 3 8 4 3 5 7 10 12 13 12 11 12 13 9 16 13
23 23 20 14 15 15 15 12 14 15 18 7 1 6 13 16 16 16 15 18 16 14 13 10 7 4 1 2 7 9 10 11 11 3 6 8 4 4 10 10 11 10 6 12 12 13 21 21 20
25 22 14 12 12 12 15 15 14 16 4 4 3 1 13 15 15 15 17 19 15 13 14 10 8 4 3 1 5 8 9 12 9 4 7 10 6 4 9 11 11 8 7 10 12 11 16 19 17
23 14 11 11 11 12 18 18 15 8 9 2 3 10 13 14 14 14 14 13 15 14 14 10 8 7 4 3 3 7 9 11 10 8 10 8 10 9 12 10 10 8 8 10 11 13 19 22 24
23 17 13 15 11 16 20 17 5 5 5 2 2 7 13 13 13 14 14 14 16 14 14 12 10 8 5 4 3 5 7 10 8 8 10 8 8 10 12 9 10 9 11 13 13 16 19 22 22
21 22 18 18 17 12 11 11 10 11 8 9 9 10 12 11 13 14 14 15 16 15 14 10 8 9 5 4 3 3 5 8 8 10 11 13 10 14 12 12 13 13 15 17 22 21 23 23 23
23 19 16 12 16 15 12 15 5 11 6 10 10 7 12 12 13 13 13 14 14 16 14 10 8 7 6 4 4 4 7 7 7 6 8 10 13 14 16 16 18 19 19 23 24 22 22 24 23
18 20 18 14 14 12 10 10 9 10 12 11 8 11 11 13 14 13 12 15 14 16 16 12 10 9 8 5 5 4 8 6 9 10 12 11 14 13 14 18 18 19 18 24 23 22 24 24 24
23 23 18 11 16 11 11 5 10 9 9 11 12 13 13 15 13 13 13 16 15 15 16 14 12 11 9 8 8 5 8 8 10 13 14 12 13 15 15 16 17 19 21 22 21 22 22 25 23

GFSSGP_925_spd_009.txt.gz
Wind_Speed
10 10 7 2 1 2 5 9 5 6 5 4 7 7 5 6 5 4 16 13 16 21 20 17 13 11 11 11 11 10 10 9 8 9 9 10 10 11 12 10 8 7 8 9 10 11 12 11 9
12 9 3 3 2 2 5 11 11 4 6 8 6 6 9 3 6 10 12 15 16 16 15 14 12 11 11 10 12 11 11 11 10 10 11 11 12 13 13 12 12 11 10 10 11 12 13 12 11
10 12 2 4 4 7 4 8 14 6 7 5 4 6 6 8 8 12 19 17 14 10 16 15 14 12 11 9 11 12 11 12 12 13 11 12 13 15 16 15 15 15 14 13 13 13 13 14 12
4 4 3 2 10 13 2 8 4 4 5 6 6 7 5 12 8 18 19 14 13 14 17 14 12 9 8 8 9 10 12 14 13 13 13 14 14 16 17 16 18 17 17 17 16 14 14 13 13
5 3 4 5 11 15 6 10 3 5 6 3 7 6 7 7 24 23 17 12 12 15 17 14 10 8 5 7 9 11 14 14 14 14 13 14 15 16 16 16 17 18 18 18 19 17 15 13 12
3 1 3 6 13 7 6 5 8 3 5 4 7 8 6 18 21 19 17 14 12 13 11 10 7 3 7 10 9 10 12 15 16 16 16 15 15 16 17 18 19 21 21 20 20 20 19 16 13
6 3 7 14 16 15 13 5 4 6 3 3 4 3 5 10 20 21 19 18 13 10 9 6 8 10 10 11 11 11 10 11 13 14 15 16 16 17 19 19 20 22 22 22 22 22 21 19 16
4 3 11 13 12 13 13 5 6 8 7 10 10 5 6 8 24 20 20 15 11 14 13 13 11 9 8 9 8 9 10 9 10 8 7 8 10 12 16 16 18 19 21 21 21 21 21 21 18
13 5 12 17 16 17 10 7 7 6 4 3 8 7 12 29 24 20 20 20 17 20 17 17 14 10 8 2 6 9 8 11 9 7 8 13 14 12 13 14 14 19 19 20 19 21 20 19 18
11 8 21 16 18 18 10 8 8 7 9 5 5 9 23 29 26 19 14 14 22 21 17 15 11 6 5 9 6 7 7 8 10 12 15 13 12 12 14 14 13 11 15 20 18 20 19 18 17
17 17 18 17 22 20 14 9 8 11 7 3 10 11 11 10 15 15 17 18 19 20 15 7 1 3 7 7 8 8 12 14 11 13 11 11 11 10 9 9 12 14 12 14 17 18 20 20 18
18 21 22 23 22 19 10 7 9 14 9 5 8 15 9 9 10 12 13 21 18 16 11 9 4 1 4 4 9 7 7 7 12 15 13 14 13 10 9 11 10 11 14 14 17 20 20 19 17
22 23 23 23 22 10 7 9 15 19 7 1 10 11 12 11 10 20 16 21 20 17 12 7 3 3 5 7 6 9 15 18 19 15 15 16 17 11 11 9 9 10 12 15 19 21 21 19 20
21 19 21 23 20 8 10 17 17 12 6 7 8 9 10 11 12 11 20 20 18 16 10 6 2 5 5 6 10 13 13 15 15 16 16 14 14 12 12 11 11 11 13 15 18 24 23 23 19
17 22 24 22 14 15 14 18 16 10 8 10 10 10 10 10 20 18 25 22 20 15 11 6 5 7 7 7 10 11 13 14 16 15 14 12 14 14 13 13 12 12 12 14 18 19 20 21 19
17 17 18 12 11 20 13 21 15 11 9 10 11 10 9 11 17 25 31 25 21 16 10 8 4 3 5 6 11 13 12 12 14 13 11 12 14 13 12 12 12 11 13 16 20 20 16 16 15
11 15 16 17 18 22 12 19 16 11 9 9 11 8 9 10 6 24 31 28 22 16 12 6 6 4 5 10 12 14 12 10 11 10 10 11 12 12 11 12 10 9 10 18 21 21 19 18 18
13 11 14 18 23 18 14 14 10 11 11 12 9 10 9 9 14 25 32 29 24 18 11 7 5 3 6 9 11 5 7 7 9 8 10 10 9 10 9 11 8 8 10 16 20 20 19 18 16
14 14 20 23 21 21 4 22 13 10 8 8 10 9 10 10 10 26 31 29 24 19 13 8 8 5 6 8 8 6 7 5 4 5 7 7 8 8 10 9 8 10 12 16 18 16 13 17 18
18 19 23 23 20 5 18 22 16 9 7 9 11 10 6 11 13 14 24 27 24 20 14 10 8 6 4 6 7 6 7 10 9 7 6 6 4 7 11 8 8 12 12 13 15 16 12 16 16
21 20 21 19 21 17 5 6 6 5 5 7 10 8 16 21 17 14 15 25 24 18 14 12 9 4 2 4 6 5 10 12 7 4 4 3 2 4 7 5 8 11 13 14 15 17 13 8 14
21 19 22 22 17 8 1 6 4 6 10 10 12 10 16 18 16 14 13 16 23 17 16 11 10 3 3 3 7 8 8 8 11 3 5 4 3 3 7 9 10 9 8 14 16 16 15 17 11
22 16 20 22 16 7 5 2 5 4 9 14 5 11 16 18 18 16 14 20 22 18 17 15 9 6 3 0 6 7 11 12 8 4 6 3 2 5 7 11 9 9 6 13 17 15 19 17 18
24 16 17 16 9 3 6 6 9 6 7 6 4 7 15 15 14 13 19 26 22 19 19 14 12 9 4 5 5 8 10 12 8 6 5 5 1 6 11 13 9 9 6 12 15 13 19 19 19
20 14 9 3 1 6 5 4 10 10 8 7 9 13 13 15 16 15 14 12 19 24 20 15 14 9 4 7 5 6 8 8 7 7 6 7 5 9 12 12 11 11 10 11 14 16 17 17 17
18 15 7 7 4 5 8 8 14 15 10 10 14 14 14 14 14 13 13 14 20 21 21 16 16 13 5 8 5 5 6 6 6 4 6 7 7 10 11 12 13 10 11 12 13 17 20 20 24
16 13 13 5 1 2 5 7 3 9 8 11 16 16 13 13 12 12 12 18 22 22 20 13 17 13 12 9 5 3 4 4 3 3 8 8 11 10 9 12 12 13 13 13 16 20 22 23 26
24 6 6 1 8 5 5 6 5 8 9 12 13 12 10 9 12 11 11 16 24 23 20 11 14 14 13 7 8 6 5 5 3 4 7 11 10 9 11 13 15 17 17 20 23 24 26 26 26
13 10 4 7 6 5 2 7 8 7 14 14 14 13 14 14 12 11 9 19 26 23 20 13 13 14 14 9 9 7 6 8 6 9 9 10 11 12 14 14 19 21 24 25 26 24 25 25 23
15 9 7 9 5 5 6 6 8 13 12 13 15 13 11 12 11 11 11 18 24 24 21 16 12 17 14 12 10 9 10 8 10 11 9 10 15 15 15 18 19 24 24 25 28 28 27 27 24

GFSSGP_925_spd_015.txt.gz
Wind_Speed
5 9 5 2 3 4 4 6 3 7 4 3 3 3 6 2 5 4 5 23 20 32 30 33 28 25 23 20 17 16 17 16 15 14 13 13 12 11 10 10 9 8 8 8 8 8 8 7 7
10 9 3 2 3 1 5 4 6 7 6 3 5 2 1 3 2 4 12 25 22 28 32 34 29 26 23 19 17 17 17 16 15 14 15 14 13 12 12 12 12 11 11 10 10 10 10 9 9
11 4 3 3 3 5 4 3 7 9 8 5 3 1 2 3 1 13 7 25 26 29 31 31 29 27 24 20 18 17 16 15 16 15 16 15 15 14 15 15 15 15 14 14 14 13 12 11 11
6 3 3 2 7 7 5 9 11 13 5 2 5 3 4 8 5 18 17 26 29 30 31 32 30 26 23 20 18 15 16 16 16 17 17 17 15 15 16 17 18 17 16 16 16 17 15 14 13
2 3 1 3 6 5 6 12 8 6 6 3 4 5 4 4 10 19 29 30 31 30 32 31 28 25 23 21 18 16 15 14 17 16 16 17 17 17 17 17 18 18 18 19 19 19 18 16 15
3 3 1 4 5 5 7 10 5 6 6 3 2 6 5 6 14 25 30 31 28 28 30 29 27 25 23 21 18 15 14 13 14 15 15 15 17 17 17 17 18 19 19 20 20 20 19 18 17
5 3 4 4 9 7 7 3 2 4 7 6 4 7 4 5 22 32 31 30 28 26 27 28 27 24 21 18 14 14 13 13 14 14 14 14 15 15 16 18 19 20 20 21 22 21 21 19 18
5 4 3 5 4 10 5 3 2 3 10 2 3 5 6 7 24 25 27 27 26 26 28 29 27 24 21 18 16 14 13 15 15 13 13 13 13 13 13 14 15 19 21 22 23 23 24 23 21
5 2 6 7 7 8 4 4 3 4 5 2 7 6 6 17 27 24 25 24 26 27 30 30 28 25 22 18 15 13 14 15 15 16 15 14 14 15 14 16 15 13 15 17 21 21 23 21 20
5 5 10 11 8 8 8 6 14 5 11 7 7 6 2 30 27 22 19 21 28 30 31 29 27 24 20 16 15 15 15 15 16 18 16 15 14 15 13 12 11 14 15 17 15 19 19 19 20
7 13 23 12 14 5 9 17 11 11 15 11 10 7 6 10 17 20 23 30 38 35 31 28 25 23 20 17 13 15 15 15 16 18 19 16 16 14 11 12 11 10 13 16 15 14 16 19 20
6 13 19 20 19 5 12 10 17 18 17 18 9 7 9 12 15 17 22 29 32 32 31 28 27 24 18 12 12 13 14 11 10 10 13 17 16 14 13 12 12 12 12 12 12 11 13 17 19
8 19 17 14 12 14 15 20 21 20 20 19 12 9 15 17 18 27 29 32 33 30 31 32 29 22 16 13 13 12 8 8 9 11 14 16 16 16 15 15 12 12 11 12 11 11 13 16 18
6 10 13 13 18 17 22 22 13 22 12 17 7 12 15 17 20 16 18 27 30 31 36 33 28 20 15 11 12 8 6 6 9 11 13 14 16 16 16 16 13 13 12 12 11 12 13 15 17
6 12 14 16 12 21 15 19 22 19 11 13 10 12 15 19 16 18 34 32 37 33 38 33 25 18 15 10 7 6 5 9 11 12 12 14 15 15 16 16 15 14 12 11 11 12 12 15 15
5 2 7 6 12 15 9 25 20 19 12 17 15 11 12 16 18 31 26 26 29 32 33 28 22 19 15 9 7 6 7 10 11 12 12 12 12 14 13 15 16 14 12 11 12 13 12 14 14
2 13 13 17 10 7 8 16 11 9 8 13 15 12 12 16 11 19 25 28 32 36 33 26 21 18 13 9 6 6 8 8 9 12 12 11 10 13 15 16 16 13 12 11 12 12 13 12 14
11 7 13 22 3 11 17 15 20 18 10 14 17 15 12 13 20 16 25 28 34 34 30 24 19 15 12 7 5 6 6 7 10 12 12 11 10 11 14 15 14 12 11 12 13 13 13 10 10
7 15 16 16 3 8 8 9 17 16 7 12 13 13 13 7 2 17 25 34 37 33 29 23 19 15 11 6 5 5 6 7 11 12 14 13 10 11 12 14 12 11 11 10 12 15 12 11 6
11 10 20 15 9 7 11 13 17 14 12 12 14 16 4 4 5 9 21 25 30 33 28 22 17 14 9 4 3 5 6 7 9 11 10 11 8 10 12 12 10 10 11 10 13 16 13 10 10
18 18 16 19 1 6 10 14 14 17 7 11 10 8 6 11 11 12 15 22 29 31 26 21 17 12 7 5 1 3 5 7 7 7 4 6 6 7 11 12 10 10 11 12 16 17 16 10 11
18 17 19 19 6 8 4 5 5 8 12 7 11 8 9 7 8 13 13 14 25 28 22 19 15 12 9 5 1 2 4 5 5 3 3 2 2 4 6 9 9 10 11 13 16 18 16 13 13
19 13 11 11 9 5 11 3 7 3 8 11 11 7 5 7 10 14 12 17 25 24 21 18 16 11 9 5 1 2 4 4 2 1 2 2 2 4 6 6 8 9 9 12 14 18 16 13 15
6 3 2 6 1 11 18 6 5 6 8 7 4 2 7 8 9 9 14 22 22 21 20 18 15 11 10 7 3 2 3 2 1 2 3 4 3 5 7 7 7 7 5 10 12 16 17 15 16
7 7 2 3 4 6 7 6 15 10 10 9 9 8 9 9 11 14 16 10 18 22 21 20 15 12 9 9 4 1 2 1 2 4 5 3 3 7 10 8 8 5 7 9 10 13 13 13 19
17 14 6 7 4 4 6 6 9 5 9 9 9 8 9 12 11 13 12 12 18 23 24 20 16 12 10 9 4 0 1 1 2 5 5 2 3 8 11 9 8 5 7 7 8 9 11 13 17
16 16 14 2 2 2 4 7 10 3 3 3 7 9 9 11 12 14 11 14 21 25 25 21 17 12 11 9 5 1 0 2 3 4 4 4 6 8 11 10 9 6 7 8 8 10 11 12 15
10 10 8 4 5 4 4 4 6 5 3 3 6 8 7 7 9 10 9 13 22 28 26 20 18 15 13 9 5 2 1 3 4 4 4 4 5 7 10 10 10 6 7 8 9 12 10 10 11
7 8 4 8 5 5 2 6 7 9 9 11 9 8 12 12 13 12 9 16 25 27 24 19 18 15 14 10 6 5 2 3 5 4 3 2 4 6 8 9 10 9 9 10 11 12 13 15 15
18 18 13 8 8 6 4 8 4 8 11 11 10 10 8 10 12 11 11 14 18 24 22 19 19 17 14 10 8 7 5 5 5 5 4 5 6 6 9 11 11 12 12 12 15 16 15 15 16

GFSSGP_925_spd_021.txt.gz
Wind_Speed
13 14 9 2 3 2 3 3 2 4 2 3 7 4 5 3 4 7 0 16 13 30 28 33 30 26 23 21 19 16 14 12 11 10 8 8 8 7 7 8 7 8 7 6 6 6 5 5 8
17 13 3 2 2 4 3 3 6 1 6 9 6 7 5 7 4 5 3 23 16 30 30 31 32 28 26 24 21 19 17 15 13 13 12 11 11 11 12 12 11 10 10 10 9 8 8 7 8
13 4 2 2 3 6 3 7 4 4 10 3 3 3 4 4 4 3 6 26 19 28 30 29 31 31 28 26 24 22 19 18 16 16 15 14 13 13 14 14 14 13 12 13 14 11 12 11 9
6 4 3 4 10 6 4 4 4 10 2 3 2 6 3 5 4 6 12 26 21 26 30 28 33 33 31 28 26 23 21 19 17 16 16 16 15 16 15 16 16 15 15 15 17 14 16 14 14
2 2 4 5 7 6 9 13 7 7 5 5 2 3 4 4 10 6 16 26 25 25 32 28 33 34 33 30 26 24 22 19 17 16 16 15 16 16 16 16 17 17 18 17 19 16 16 18 17
3 0 4 8 10 8 7 11 4 6 2 4 3 3 5 3 7 10 18 27 24 27 32 30 33 35 33 30 27 25 22 19 17 15 14 15 16 14 14 15 15 16 17 17 18 16 18 19 16
4 3 5 7 9 8 7 1 5 5 1 2 1 4 4 5 7 9 16 24 25 26 30 32 30 34 34 31 28 25 22 19 17 15 14 13 15 14 14 14 14 15 16 17 18 18 20 18 15
2 3 4 5 7 8 5 5 3 1 0 2 4 3 7 9 9 11 16 19 22 24 27 32 31 25 26 25 28 26 22 19 18 17 16 15 14 14 14 14 14 15 14 15 18 20 20 20 20
2 6 11 8 9 8 1 3 1 2 7 5 6 11 7 9 6 7 13 17 18 21 26 27 25 26 25 22 21 25 21 19 19 17 17 15 13 13 13 15 17 15 14 15 15 17 18 18 20
8 11 15 15 12 11 3 6 6 6 11 20 15 14 10 8 9 12 19 23 26 26 27 26 28 24 21 20 19 17 16 15 15 14 14 13 13 14 15 16 17 16 14 14 15 16 15 14 15
10 19 24 20 15 9 15 13 10 13 19 21 17 19 18 15 15 16 22 28 32 30 24 27 27 25 23 20 18 16 15 14 15 16 16 15 15 14 14 14 13 11 12 12 13 14 14 14 11
14 19 23 25 18 14 20 16 17 19 27 24 21 18 19 19 16 17 23 28 28 27 24 24 30 30 26 18 21 20 18 17 15 15 17 17 16 16 17 15 13 13 11 11 10 9 11 12 12
19 22 19 20 23 20 19 22 22 23 28 23 21 19 19 19 17 23 27 28 27 29 25 23 27 28 29 27 22 21 19 16 14 15 18 19 17 16 16 16 15 13 11 11 10 10 10 10 11
11 23 24 20 18 20 20 27 16 22 24 20 19 22 22 21 21 24 19 28 27 29 24 25 28 30 29 27 24 21 17 15 14 16 17 18 17 16 15 15 15 14 13 11 10 9 9 10 11
15 16 14 14 18 14 12 23 23 27 24 18 20 21 21 22 22 19 26 27 33 28 24 29 28 30 29 26 23 18 15 14 15 16 18 18 18 19 17 15 14 14 13 13 9 8 8 9 9
10 9 16 14 19 12 12 25 16 18 13 15 17 17 17 21 19 25 26 26 18 20 22 26 29 30 29 26 21 16 14 14 16 18 18 19 19 18 14 14 13 11 12 10 9 9 9 10 10
9 16 18 14 10 4 16 22 12 11 11 15 19 20 19 20 21 24 21 20 18 23 25 29 28 29 29 24 18 14 13 14 16 16 16 17 16 15 13 12 11 10 11 10 9 9 10 10 9
16 12 11 12 10 18 21 25 18 16 16 17 20 20 19 19 24 22 15 13 17 22 29 35 37 33 27 20 15 12 12 14 15 13 12 13 12 12 12 13 12 11 10 9 9 9 9 8 9
19 19 23 19 14 13 19 21 14 15 20 20 20 20 19 19 18 10 4 7 15 20 27 31 28 26 24 16 11 8 9 11 10 10 10 10 11 11 12 11 10 11 10 9 9 9 10 9 8
24 23 20 16 12 10 15 23 17 14 19 21 22 21 20 19 12 2 2 7 13 19 20 26 26 26 20 15 11 6 6 7 8 9 8 7 6 8 9 10 11 12 9 9 10 11 10 8 9
27 28 22 21 9 11 12 22 16 21 14 15 20 19 18 16 10 3 7 10 13 17 23 26 25 23 19 14 10 7 5 4 4 3 1 2 4 6 8 9 9 9 10 10 10 11 12 10 8
26 24 22 21 11 15 4 18 14 19 22 21 21 15 15 10 3 6 9 12 16 20 24 22 22 21 17 14 9 6 3 3 2 1 2 2 2 3 5 8 9 9 7 6 8 11 12 10 12
19 17 18 20 17 16 18 13 16 12 19 23 19 15 7 1 4 9 11 16 19 23 22 21 20 18 15 13 8 5 3 2 1 2 2 3 2 3 4 7 8 7 6 8 10 13 12 11 11
12 12 16 12 12 14 19 15 14 16 20 16 13 9 2 4 7 9 13 20 23 21 20 19 18 15 14 11 8 3 2 2 2 1 2 3 1 4 5 5 6 5 6 8 10 12 11 10 9
19 14 6 7 7 10 15 11 18 14 16 15 15 9 4 7 10 11 14 17 23 22 20 19 17 15 13 10 7 3 2 2 1 1 3 1 4 6 7 6 6 6 7 8 9 11 11 9 7
26 21 9 9 7 9 7 10 8 19 21 21 17 8 5 9 11 13 16 17 23 22 20 19 16 14 12 10 7 3 2 0 1 1 2 1 4 7 8 7 4 4 7 7 9 9 9 7 4
23 18 15 3 1 4 6 6 11 15 9 11 14 7 8 11 13 16 17 20 21 21 20 19 15 12 11 9 6 4 2 0 0 0 2 4 6 9 8 8 5 5 7 6 6 7 7 7 8
19 20 11 9 11 8 6 4 9 9 14 10 9 10 10 12 14 16 17 19 20 20 19 16 14 12 10 9 6 4 2 1 2 3 3 6 8 9 8 7 5 5 5 5 6 7 7 7 8
12 22 8 9 5 6 3 5 7 12 14 14 10 12 15 16 16 17 17 19 20 19 18 15 13 11 9 8 6 5 3 3 4 3 2 5 8 8 8 8 6 6 7 6 7 7 7 8 9
20 20 21 10 11 5 2 4 3 8 2 1 8 11 13 15 15 17 16 19 19 18 17 15 12 10 9 8 6 5 5 3 4 4 4 6 7 8 8 8 7 6 7 7 8 8 7 8 8

GFSSGP_925_spd_024.txt.gz
Wind_Speed
13 13 9 7 5 4 11 6 3 7 7 2 3 6 5 6 8 6 5 14 12 23 25 32 30 27 24 22 20 19 16 14 11 10 9 8 8 9 9 8 8 7 6 6 5 5 6 5 5
14 11 7 3 7 9 9 6 10 3 2 6 9 11 8 9 5 4 6 17 14 23 25 29 32 29 26 24 21 20 17 14 12 11 10 10 9 9 9 9 9 9 9 9 9 8 8 7 6
14 8 6 5 8 10 3 10 6 2 2 3 5 5 1 2 1 3 1 21 17 23 24 27 31 31 27 24 22 20 18 16 13 13 12 12 12 11 12 12 12 12 12 12 12 12 11 10 10
12 7 5 9 12 9 9 8 3 5 5 3 3 6 4 3 1 1 6 20 18 22 23 25 30 32 29 26 24 23 20 18 15 14 14 14 13 13 14 14 14 15 16 15 15 15 15 13 13
11 5 10 12 14 10 8 10 6 8 3 4 2 4 3 4 2 2 5 17 17 19 23 22 29 32 32 29 27 24 21 19 17 15 14 14 14 15 16 16 16 17 17 17 19 18 18 16 15
8 5 10 13 15 8 10 11 10 11 6 2 5 4 1 4 6 2 6 15 15 17 22 20 27 32 34 32 29 26 23 21 19 17 15 14 14 16 16 14 14 15 15 16 17 18 19 16 16
13 9 14 15 12 11 13 8 12 15 11 6 4 7 3 2 10 4 5 12 17 17 20 21 21 31 35 33 29 26 24 22 20 18 16 15 14 16 16 14 14 14 13 15 17 17 16 17 15
9 9 18 13 14 12 2 9 4 7 7 2 2 6 6 12 9 5 7 10 17 20 20 22 21 24 26 24 29 27 24 22 20 18 17 16 15 16 16 16 15 13 13 13 14 16 17 18 16
12 11 14 19 14 11 5 8 1 2 10 10 7 11 12 13 9 11 10 12 16 22 22 22 21 22 24 23 22 27 24 21 19 18 18 17 15 15 14 15 17 18 15 13 14 14 14 16 18
14 15 23 21 13 15 8 9 8 9 14 18 15 17 8 13 14 16 16 15 16 22 23 24 23 24 22 22 20 19 20 18 17 17 15 14 15 14 14 15 16 19 19 16 14 13 13 14 15
19 24 23 23 21 19 19 20 19 16 18 21 21 19 17 19 19 19 19 18 18 20 25 26 25 25 24 21 19 18 19 17 16 16 15 14 14 13 13 13 13 13 12 13 12 12 13 15 15
29 25 23 26 25 20 19 23 23 22 20 23 22 21 23 22 18 19 21 22 21 19 22 27 28 26 24 21 21 19 18 16 14 13 14 14 13 13 13 13 13 13 14 13 12 12 10 12 15
30 25 25 22 25 23 23 26 29 27 22 24 21 21 20 19 21 27 27 24 24 22 20 27 27 28 25 24 20 19 18 16 14 13 12 13 14 13 13 13 14 14 14 14 13 13 12 12 13
26 28 29 28 27 25 25 26 26 26 22 26 22 22 21 20 23 24 25 25 23 21 18 24 28 28 27 26 22 20 17 15 13 12 12 13 14 13 15 14 14 15 16 15 13 12 12 13 13
25 27 27 22 25 27 25 27 28 25 21 25 22 18 20 20 25 21 23 23 23 20 17 25 27 29 28 26 24 19 15 15 13 11 11 13 13 15 16 15 15 16 16 16 14 12 13 13 13
20 24 25 26 22 21 16 30 24 17 19 19 16 18 20 22 22 25 23 24 24 20 18 23 26 30 29 26 23 19 16 14 13 11 11 13 14 16 16 15 16 16 16 15 16 14 13 13 14
25 26 32 26 24 24 25 35 25 23 17 15 16 19 20 22 22 25 21 20 19 18 17 21 25 28 28 26 23 18 15 14 12 10 11 13 14 16 17 16 17 13 15 16 15 14 13 13 10
28 25 26 28 21 17 27 33 23 21 20 19 19 20 21 20 22 23 19 16 16 12 15 18 23 25 23 21 17 14 13 13 11 10 11 12 13 15 16 16 12 13 13 14 14 12 12 11 12
26 26 31 26 25 24 26 30 27 23 16 21 23 21 21 22 22 19 11 9 6 9 15 19 22 23 24 21 18 15 14 12 10 10 11 12 13 14 16 13 14 12 15 14 13 12 13 12 11
29 28 30 24 19 22 23 29 27 22 23 22 25 22 23 21 19 13 6 5 8 11 15 19 22 24 21 17 14 11 10 8 8 7 9 10 12 13 14 13 11 12 14 13 14 14 12 11 13
31 31 24 26 19 18 22 28 28 26 28 26 23 20 20 20 18 12 6 7 10 15 18 22 24 24 19 15 12 9 6 6 8 7 7 6 8 10 10 10 11 12 14 12 14 13 12 12 11
32 24 24 24 20 23 21 24 27 25 27 22 23 22 23 18 15 7 8 10 13 16 20 24 24 22 17 14 11 9 6 6 3 5 5 6 7 7 7 9 10 11 12 13 11 10 11 11 11
30 18 22 23 21 23 27 19 21 19 23 25 25 21 17 13 9 9 10 12 15 19 23 24 22 19 16 13 10 9 5 4 4 5 5 7 6 5 6 8 10 11 11 10 8 8 10 9 8
22 18 21 18 16 20 21 21 21 23 26 24 21 17 14 7 7 10 13 17 20 23 23 22 20 17 15 13 10 5 4 3 4 5 7 5 5 6 8 8 8 9 7 6 7 8 9 7 6
23 22 10 13 13 15 16 15 23 21 19 22 16 11 10 8 11 14 16 16 23 24 23 20 19 16 15 12 9 6 4 4 4 6 4 3 5 6 8 7 7 6 6 6 7 9 8 7 6
30 27 14 18 14 13 19 11 14 11 18 22 19 10 10 10 12 15 17 18 23 23 22 19 18 16 14 12 9 6 5 3 3 2 3 2 4 6 7 7 6 5 5 7 8 8 8 7 5
28 27 25 8 4 8 9 14 13 18 15 13 12 16 12 10 13 16 18 19 23 22 20 19 16 15 14 12 9 6 5 2 0 1 2 2 6 8 6 6 6 6 5 6 7 7 8 7 6
28 24 22 13 15 12 8 12 7 3 6 10 12 13 11 13 15 17 17 18 21 21 19 17 15 15 14 12 9 7 4 2 3 4 4 4 7 8 7 6 5 5 6 4 4 6 7 6 8
18 23 21 17 12 13 6 6 7 13 7 11 12 14 15 16 17 18 17 21 21 21 20 17 15 15 14 11 8 6 4 3 3 3 5 6 9 10 7 6 4 4 4 3 3 4 5 5 7
24 21 26 14 20 10 7 2 4 4 3 8 6 11 16 17 18 18 18 20 21 20 19 17 16 15 13 10 8 6 4 3 3 4 6 8 9 9 9 7 5 4 3 3 4 5 5 7 7

GFSSGP_925_spd_027.txt.gz
Wind_Speed
9 11 11 9 7 8 13 10 9 5 6 1 4 7 10 11 9 5 8 7 13 21 23 30 29 26 23 21 18 16 14 12 9 8 7 7 6 6 6 6 5 5 4 4 4 4 5 6 6
11 11 9 8 9 12 13 14 9 10 6 3 9 9 9 7 9 3 10 12 14 20 22 27 30 27 24 22 20 18 16 14 12 9 8 7 7 7 7 8 7 7 7 7 7 8 8 7 7
10 13 8 6 13 14 6 4 18 6 2 7 5 0 6 2 7 8 9 11 14 19 21 24 29 28 26 24 22 20 18 16 13 11 10 9 9 9 9 9 9 10 10 10 10 10 11 11 11
12 11 9 11 18 13 10 9 4 1 8 6 9 8 6 9 3 6 4 10 12 16 19 22 27 30 28 26 24 22 20 18 16 13 12 11 10 11 11 11 12 12 13 13 14 14 13 14 13
19 9 13 15 18 17 6 13 3 5 9 7 1 13 0 13 7 3 4 9 11 14 17 19 27 31 30 28 25 23 21 19 17 14 12 11 11 12 12 13 14 14 14 16 14 16 18 17 15
9 12 13 15 19 19 6 11 11 12 11 6 5 8 3 9 7 4 1 7 10 12 16 17 22 29 31 30 27 24 22 20 17 14 13 12 12 12 13 15 14 13 13 13 14 15 15 16 17
17 13 16 19 18 16 7 10 14 12 13 14 4 5 6 8 8 1 2 5 11 13 16 19 18 26 32 32 29 26 23 21 19 16 15 14 14 13 14 14 13 13 13 13 13 15 16 15 14
15 14 22 18 17 19 13 5 10 11 12 11 2 7 12 6 5 7 8 8 11 13 16 19 18 18 24 24 29 29 25 22 20 18 17 16 16 15 17 18 17 16 13 13 15 14 15 15 16
20 15 17 21 20 18 12 11 14 3 11 6 9 9 13 15 12 13 15 15 13 12 17 19 22 21 23 24 23 27 25 23 21 19 18 16 14 16 17 19 16 14 14 16 14 14 15 15 18
20 17 24 20 19 19 17 10 14 8 12 15 16 19 18 10 12 16 16 17 20 17 17 22 24 24 23 24 24 21 22 21 19 18 17 16 15 14 14 9 10 17 19 19 17 15 15 14 14
24 24 24 23 21 21 26 23 19 19 21 17 17 19 16 19 19 18 22 23 22 22 14 22 24 25 25 24 24 20 21 21 21 19 19 17 14 14 14 14 15 14 11 11 11 13 13 13 15
29 30 27 28 27 27 31 26 25 23 23 22 19 22 17 19 18 17 21 24 27 28 19 18 26 28 27 25 25 23 22 22 19 18 18 16 15 14 13 13 14 9 14 12 11 12 12 10 12
34 31 30 30 30 29 29 30 31 27 26 26 21 21 18 21 19 22 24 26 27 25 26 18 25 29 30 31 26 26 25 22 19 17 15 15 16 14 13 13 10 13 14 13 12 13 13 11 13
31 33 34 32 31 30 30 32 28 28 27 27 23 23 22 22 20 21 24 26 24 24 23 17 21 29 31 31 26 25 21 19 17 16 15 15 15 14 14 13 13 15 14 14 13 16 15 12 17
33 35 33 33 30 33 28 35 34 29 28 28 26 23 23 20 23 18 27 23 24 23 19 17 19 27 28 28 27 24 23 23 24 18 15 14 14 13 14 15 14 15 15 13 13 15 16 15 16
33 31 29 32 32 29 25 35 28 27 27 29 24 21 18 18 20 24 29 26 21 20 20 16 20 25 25 25 25 23 21 19 17 14 13 13 15 14 13 16 16 15 12 12 13 15 16 18 14
27 28 36 31 29 28 29 40 29 27 27 27 26 24 16 19 22 24 25 25 20 17 16 17 19 22 25 24 23 22 19 16 14 12 12 12 14 13 16 18 17 15 13 12 13 15 16 17 12
32 34 30 33 28 29 34 36 31 26 25 26 30 19 21 23 24 22 26 22 13 12 14 14 18 20 24 23 21 21 17 15 13 12 11 12 13 13 15 17 16 13 11 13 15 16 14 14 9
31 26 32 32 28 31 31 32 28 22 26 28 27 26 18 23 25 30 25 3 6 8 10 15 18 20 23 22 23 20 18 14 12 12 11 11 12 14 13 14 13 12 12 13 14 15 13 12 8
34 32 34 29 28 23 28 30 28 26 25 27 28 28 23 21 27 21 19 3 5 8 12 15 19 21 22 20 19 17 14 13 12 11 10 9 12 14 12 14 12 13 12 12 13 13 13 13 13
33 33 30 31 25 23 25 29 30 28 27 26 27 29 28 27 24 20 13 6 7 10 13 17 20 23 22 19 14 10 9 5 8 10 11 11 10 10 11 11 11 11 12 14 15 14 14 13 12
32 30 29 27 22 20 21 23 28 21 24 26 25 26 25 21 20 19 7 8 10 12 15 19 22 24 19 18 15 13 11 10 6 3 4 5 7 9 8 10 11 11 12 10 10 12 13 13 12
38 25 26 26 21 23 28 19 20 22 24 22 21 21 22 20 21 19 11 12 13 15 18 21 23 21 19 15 13 12 8 6 5 6 4 6 6 7 9 9 10 12 10 9 10 10 11 12 10
31 28 26 21 18 20 26 21 24 24 25 24 22 22 18 18 17 6 11 15 16 19 21 22 22 19 17 14 11 6 5 2 3 5 3 4 5 7 8 8 9 8 7 7 8 9 9 7 8
28 26 17 19 17 23 18 20 23 23 22 19 18 19 18 16 11 13 14 15 20 23 23 23 22 19 17 14 11 7 5 4 4 5 4 6 3 5 8 7 6 5 6 7 8 9 7 7 6
34 28 17 33 15 19 24 24 17 14 9 9 15 12 10 10 12 14 16 17 22 24 24 22 20 19 16 13 10 7 6 8 3 2 4 2 2 6 7 6 5 6 7 8 7 8 6 5 4
39 27 34 24 24 17 15 18 20 18 16 12 11 14 14 12 14 16 18 17 23 23 22 21 19 17 15 13 10 7 6 2 2 1 2 5 5 8 6 4 3 6 5 5 6 4 4 1 1
31 29 23 20 27 22 14 11 9 7 6 16 14 19 16 14 16 17 17 17 22 22 21 20 17 16 15 13 10 9 6 3 5 3 1 5 6 6 6 4 4 6 6 5 4 4 3 4 5
24 25 29 22 18 16 13 12 6 6 8 10 15 19 19 17 18 18 18 21 22 22 20 18 17 16 14 12 10 9 7 4 6 4 3 7 7 7 7 5 4 4 4 4 4 5 6 6 7
31 30 31 18 27 18 11 6 4 7 11 12 18 19 18 18 19 19 19 18 22 21 20 18 16 15 14 12 9 9 6 3 4 5 6 9 9 8 8 8 4 3 3 5 4 4 4 5 6

GFSSGP_925_spd_030.txt.gz
Wind_Speed
8 7 8 10 5 7 16 20 4 4 4 3 6 4 12 8 8 5 18 16 25 22 24 29 26 25 23 20 19 16 14 11 9 7 5 5 5 4 4 3 3 4 3 2 3 3 4 4 4
7 9 12 6 8 12 14 14 9 5 22 8 3 6 7 3 13 14 14 13 24 21 23 28 28 27 24 22 21 18 17 13 11 8 7 5 4 4 4 4 5 5 5 5 5 5 6 6 6
14 14 8 5 11 15 14 3 4 7 9 11 4 7 2 9 11 12 15 12 23 19 21 27 30 29 26 24 22 20 19 16 13 10 8 6 5 5 5 5 6 6 8 8 8 7 8 9 9
9 5 6 7 18 21 12 8 3 4 23 3 6 6 6 13 5 9 8 10 24 20 18 24 28 30 28 25 24 21 19 16 14 11 10 8 7 7 7 8 8 9 10 10 11 11 11 11 12
14 8 11 15 19 20 16 17 12 7 10 7 3 2 9 12 14 9 9 9 14 22 21 21 25 29 29 27 24 22 19 18 15 14 11 10 8 8 8 9 10 12 12 12 11 10 11 14 15
7 7 12 15 20 22 16 12 14 12 2 11 5 9 5 16 16 9 8 9 9 16 23 22 20 28 30 28 26 24 22 21 18 17 14 12 10 9 9 10 12 15 12 11 11 12 12 13 13
15 11 17 19 20 20 16 5 9 13 11 7 11 3 5 16 11 4 4 9 12 12 24 22 21 24 30 30 29 27 25 23 21 19 17 14 12 12 11 12 14 14 13 13 13 13 14 14 13
13 13 22 20 18 21 17 15 7 13 11 7 4 3 6 5 11 8 12 12 21 22 23 27 23 23 28 33 32 30 28 26 23 21 20 16 15 15 14 16 18 17 16 14 13 14 15 15 14
17 14 16 23 22 19 15 17 15 13 4 9 2 6 5 13 19 7 11 12 15 12 28 31 30 24 22 26 27 31 30 28 25 23 21 18 17 13 16 21 18 15 16 16 17 17 17 16 16
17 16 26 22 21 18 19 18 11 15 10 13 14 11 18 18 5 7 14 13 16 19 10 32 32 32 28 27 27 29 31 30 30 26 22 20 17 13 16 10 12 18 18 14 14 15 14 13 13
23 24 25 23 24 24 22 22 19 23 18 12 19 18 16 14 14 13 17 21 19 23 18 14 35 34 34 31 30 33 29 28 27 26 22 20 16 17 18 16 19 20 16 14 13 15 13 11 11
27 30 27 28 26 27 26 25 26 24 24 18 24 17 16 12 10 13 18 18 19 20 18 21 32 37 37 32 31 30 28 28 27 28 27 28 22 17 17 16 12 12 15 12 11 10 11 10 11
31 28 28 29 26 27 27 28 27 29 24 25 23 21 20 17 11 18 24 23 20 17 15 15 17 38 40 34 30 29 28 28 27 28 31 28 23 17 16 17 15 12 8 8 11 9 9 12 14
28 29 31 29 30 29 30 28 26 26 22 24 23 23 23 21 15 18 22 18 15 14 16 18 20 33 40 40 32 28 29 24 28 25 23 25 20 17 14 15 16 13 15 14 14 11 13 11 11
30 33 31 32 30 31 26 32 28 24 25 26 25 23 22 19 18 17 19 19 12 14 19 17 13 23 36 32 37 19 23 24 24 20 17 18 21 17 12 13 13 15 13 16 17 15 12 14 14
32 32 30 29 29 33 26 31 26 25 22 22 23 21 21 23 19 17 15 18 16 19 17 15 15 26 31 26 27 27 21 24 14 19 15 16 15 14 12 14 16 15 12 14 15 13 14 13 15
29 23 33 33 30 30 29 31 28 26 25 25 20 21 20 20 20 9 13 19 21 24 14 13 13 24 28 23 19 24 18 17 22 16 16 18 17 15 17 16 15 14 13 14 14 14 13 13 13
23 30 34 29 26 27 30 29 28 25 26 26 21 20 17 19 22 14 14 19 26 6 7 7 12 18 26 22 19 19 16 14 17 15 15 14 15 14 15 16 16 15 15 14 12 14 15 14 11
26 32 33 29 25 27 25 26 29 22 21 23 24 17 16 18 17 12 14 19 5 5 5 7 16 20 24 20 20 18 15 16 17 16 15 14 11 11 13 16 15 13 15 12 11 13 12 13 9
33 33 31 28 26 23 23 25 24 23 20 22 21 17 14 14 17 13 11 13 10 9 10 11 13 17 21 19 20 19 18 19 18 17 16 15 12 11 14 14 12 12 13 13 12 12 11 12 11
32 33 26 30 24 27 24 25 25 24 24 23 18 17 15 14 17 18 14 12 14 12 13 13 16 21 21 18 20 17 19 11 16 10 9 14 11 10 8 10 10 11 12 13 13 14 14 11 12
28 28 28 27 22 21 20 20 25 19 22 21 18 19 19 18 18 19 17 13 15 15 15 16 17 20 19 20 16 14 12 8 11 16 11 11 10 8 7 9 10 8 10 11 11 14 16 13 11
34 22 26 27 25 21 24 15 27 16 19 15 16 16 16 14 12 13 8 16 17 19 18 18 18 19 17 19 16 14 12 12 5 3 7 6 5 4 7 7 6 9 9 8 7 9 12 12 15
26 29 27 25 19 18 25 21 25 18 18 17 18 20 18 14 14 13 17 21 20 20 20 20 20 17 19 14 15 16 12 3 4 5 4 2 3 6 6 7 8 7 7 7 7 8 8 10 13
31 22 16 18 17 22 19 22 21 21 19 19 21 19 12 9 9 18 17 14 17 20 21 21 20 18 17 13 12 7 6 4 3 2 0 2 3 4 6 6 6 5 4 5 6 8 5 7 7
29 26 15 24 17 19 23 22 20 22 19 14 10 3 8 3 15 17 15 14 18 21 22 22 20 19 17 15 13 10 9 7 4 3 1 3 3 4 7 6 4 4 4 5 6 5 5 3 5
28 28 29 23 21 16 17 20 31 24 18 13 7 9 8 14 12 14 15 14 20 21 21 22 20 18 17 16 13 10 7 6 5 4 2 5 7 7 7 6 4 4 4 5 7 4 5 4 1
31 20 26 18 25 22 20 23 14 17 19 16 12 11 14 16 14 14 15 15 20 22 21 21 20 18 17 16 13 11 9 5 6 5 4 6 7 8 8 5 4 4 4 4 6 5 6 6 4
23 25 22 21 17 16 14 13 7 14 9 4 13 14 16 16 15 15 15 18 21 22 21 20 19 18 17 16 12 14 9 7 7 5 5 8 6 9 7 7 5 5 4 3 4 8 6 5 3
29 25 23 15 25 17 14 16 8 4 5 6 13 17 19 16 16 16 16 15 20 20 21 19 19 18 16 15 19 14 8 11 6 8 8 10 8 8 8 8 5 5 6 4 2 4 4 5 5

GFSSGP_925_spd_033.txt.gz
Wind_Speed
8 5 1 3 3 2 4 7 10 12 5 4 6 6 2 4 5 5 22 26 22 25 32 31 28 25 23 21 20 18 16 14 12 10 8 7 6 5 5 4 3 3 3 3 2 1 1 2 2
5 3 3 2 2 2 5 9 1 4 3 11 12 2 3 8 7 10 16 25 25 25 32 32 29 26 24 23 21 19 17 15 13 11 9 8 7 6 5 5 5 5 5 4 3 3 4 4 4
8 5 1 3 4 6 4 5 10 13 6 2 4 7 4 7 6 8 33 30 26 25 30 31 30 27 25 24 23 21 20 17 15 12 10 8 7 6 5 5 6 6 7 7 6 6 6 6 7
3 2 3 2 9 11 15 11 6 5 21 5 8 2 5 6 7 15 33 28 26 24 25 28 29 28 27 25 24 23 22 19 17 15 13 11 9 7 6 6 7 8 7 7 8 9 9 9 9
3 3 3 5 9 12 17 9 9 8 11 4 19 2 5 12 24 20 31 30 25 22 22 24 29 29 27 26 25 24 24 23 21 18 15 14 12 9 7 8 9 8 9 9 9 9 7 10 11
1 2 2 6 12 18 17 11 7 12 17 12 1 10 4 18 21 17 17 30 26 26 25 25 28 31 31 29 28 27 25 25 24 22 19 17 15 12 10 10 9 10 11 11 10 10 11 13 14
3 4 6 8 13 20 16 9 11 4 8 4 3 5 4 7 17 20 19 18 29 32 30 29 30 32 34 34 33 31 29 27 26 25 23 21 18 15 13 12 10 11 12 13 13 13 13 12 12
4 3 6 6 12 19 17 12 4 5 2 5 7 2 7 7 19 18 19 23 22 34 36 36 33 33 36 38 37 35 32 30 28 26 25 22 20 17 16 14 14 14 13 13 14 13 13 14 14
9 5 8 10 13 16 19 13 8 5 8 4 4 2 1 11 20 19 15 8 25 27 39 39 38 38 38 40 40 37 35 32 30 28 27 24 22 20 17 15 15 16 15 14 14 15 15 14 14
12 8 17 17 13 15 18 15 14 6 5 3 4 6 18 19 2 2 2 4 10 12 38 42 40 39 40 39 40 40 38 36 34 31 29 27 25 22 17 15 14 20 17 16 13 14 10 11 13
12 19 17 18 17 21 22 19 17 13 7 5 5 8 19 15 14 3 1 3 11 21 12 36 39 40 40 40 40 41 41 38 35 34 31 28 26 21 19 19 20 15 18 18 14 14 13 11 9
18 21 19 22 21 23 25 22 20 17 10 8 10 12 10 12 7 7 6 9 16 25 21 17 35 40 43 39 39 39 39 37 36 37 32 29 26 22 20 19 21 18 20 18 15 16 15 11 11
23 20 19 20 19 23 24 26 23 22 19 13 11 18 10 9 10 14 15 16 19 26 23 7 16 29 38 40 37 38 37 36 33 31 32 32 28 23 20 21 16 14 13 15 14 19 12 11 11
14 15 22 18 21 22 24 25 21 21 19 14 13 13 10 11 11 13 19 21 24 25 13 11 11 21 34 43 40 40 37 36 32 29 27 31 29 24 21 18 18 15 15 14 11 10 11 12 12
18 21 20 24 22 25 22 30 31 20 14 17 15 17 17 11 12 11 23 27 25 14 12 16 19 21 31 38 40 39 35 33 31 30 29 29 29 28 20 17 15 16 17 16 15 17 14 13 14
17 16 22 22 21 23 17 40 13 14 14 14 18 19 11 11 10 23 32 29 19 15 15 18 17 19 28 40 33 32 32 31 32 31 28 28 31 25 19 17 16 12 13 16 17 17 17 15 14
13 21 24 26 23 19 15 28 20 17 19 22 22 22 19 16 11 14 15 16 17 15 18 15 19 23 31 37 40 25 24 25 24 23 20 22 22 20 19 17 15 13 15 14 13 14 16 15 15
11 21 26 29 12 14 21 27 30 29 21 23 22 20 19 18 13 14 16 20 18 13 10 15 20 25 30 32 29 26 17 19 18 17 17 18 18 18 15 15 17 19 18 18 14 16 17 15 15
13 21 20 18 18 16 21 23 25 18 10 13 12 11 11 10 11 16 16 19 11 15 16 16 22 27 31 31 28 24 21 18 15 14 16 15 16 16 15 14 15 16 18 16 15 13 13 14 14
20 25 24 15 14 16 22 20 24 22 18 19 23 19 11 8 8 7 5 8 15 15 16 17 22 30 30 31 26 26 20 20 17 15 17 16 17 17 14 13 15 16 17 15 15 14 12 10 10
25 27 19 21 13 23 16 15 17 17 16 13 10 11 8 11 10 8 9 14 23 22 21 21 22 27 25 27 23 21 17 16 18 18 19 20 19 15 13 13 13 12 12 12 10 11 13 11 12
24 14 20 21 13 19 6 17 21 17 19 16 18 10 13 11 8 8 7 9 21 21 22 20 21 25 23 26 23 22 20 11 17 16 16 17 16 12 9 10 10 8 9 7 8 12 14 15 14
24 13 18 16 14 15 20 9 27 10 12 9 8 15 13 11 11 12 9 15 23 26 25 24 26 24 21 19 16 17 18 10 11 12 12 14 10 8 9 7 6 7 8 9 9 10 14 15 15
18 17 21 14 9 12 20 14 30 16 19 5 10 11 10 10 11 7 14 25 22 26 28 28 25 22 17 18 18 16 11 7 13 17 16 12 8 9 8 6 5 7 8 8 8 9 10 11 13
14 14 8 9 10 17 11 11 20 7 12 15 15 13 12 10 9 16 18 16 19 22 27 25 24 19 21 17 16 11 13 11 10 9 8 6 4 4 6 8 7 6 6 7 7 7 7 8 8
13 11 10 14 14 16 11 11 7 15 17 15 19 14 2 10 15 18 16 14 19 23 25 24 23 21 19 19 15 12 8 8 7 5 4 6 5 6 8 8 6 6 5 5 6 6 6 6 6
21 18 13 17 18 5 8 9 24 24 23 15 11 7 12 16 16 15 15 14 21 23 24 26 26 21 18 17 15 13 10 9 8 6 6 6 7 10 9 8 6 5 6 5 6 7 7 6 3
13 10 5 10 16 16 8 13 10 17 14 22 10 11 14 14 15 15 13 14 21 24 28 27 24 22 20 18 16 13 10 10 11 8 7 8 10 9 9 7 6 6 6 5 7 7 8 6 4
7 14 11 7 11 13 8 10 16 20 21 14 11 19 18 17 16 14 14 18 22 24 26 28 25 23 21 19 16 15 13 12 11 9 9 9 12 10 8 7 7 7 5 3 5 5 5 6 4
15 18 15 10 8 12 6 11 7 8 7 12 19 19 17 18 17 15 16 14 19 21 25 27 26 23 22 19 16 15 14 11 9 10 11 12 11 11 9 7 7 6 6 5 4 4 5 4 5

GFSSGP_925_spd_036.txt.gz
Wind_Speed
7 4 3 2 2 3 3 6 5 10 7 1 6 7 7 4 5 4 8 28 20 30 35 33 29 26 23 21 20 19 18 16 15 14 13 11 10 9 8 7 6 6 5 4 3 2 2 2 2
4 4 2 2 3 1 4 6 7 1 5 12 7 6 6 2 2 8 13 26 25 31 35 34 30 27 24 23 21 21 19 18 17 15 13 12 11 10 9 8 7 7 6 5 4 4 5 5 5
6 3 2 3 4 5 5 6 4 5 6 10 10 6 6 5 3 14 8 30 27 30 34 34 31 29 27 25 24 23 21 20 18 16 15 14 13 11 10 9 9 9 9 8 7 7 8 7 8
5 3 3 2 7 7 6 5 6 6 3 6 6 5 4 1 8 16 22 30 29 29 33 33 33 32 30 29 27 26 24 23 21 19 18 17 15 13 11 10 10 10 10 10 10 10 10 10 10
2 2 1 4 6 7 8 9 13 7 4 3 2 5 4 3 17 24 30 32 30 30 34 34 35 35 34 33 31 30 29 27 25 23 21 19 17 15 13 11 10 10 12 11 11 11 12 10 13
2 2 1 5 8 9 1 9 4 4 7 2 3 11 6 9 26 33 35 34 31 32 35 36 36 36 36 36 35 34 33 31 29 26 24 21 19 17 14 12 10 11 12 12 13 12 12 13 14
5 4 4 4 8 9 4 5 6 6 2 9 4 7 7 6 27 35 37 34 33 30 34 37 39 38 38 37 36 36 34 33 32 29 26 23 21 18 16 13 11 11 12 12 13 13 13 14 13
4 4 2 4 4 9 4 13 5 7 4 1 8 3 4 7 23 32 35 35 35 34 34 36 39 41 41 40 39 38 36 34 33 32 29 26 23 20 17 15 14 12 12 12 12 13 13 14 13
5 2 5 6 7 9 5 4 18 10 6 2 4 6 8 15 9 17 20 23 32 31 35 38 39 41 43 43 42 40 38 36 35 34 31 28 26 23 20 18 15 15 15 15 14 12 13 13 14
6 8 9 10 11 6 14 8 20 13 15 7 2 2 8 17 20 15 12 15 26 36 41 40 40 43 44 44 43 43 41 39 38 37 35 32 30 26 22 18 17 16 18 17 16 13 12 12 11
6 14 14 15 11 9 13 13 14 17 12 6 5 5 7 5 14 15 20 20 16 33 35 42 43 44 44 44 44 43 45 43 42 41 38 36 32 28 24 20 18 17 17 19 19 16 16 14 11
11 12 14 16 16 14 17 17 13 16 17 11 10 9 7 9 9 10 12 18 21 20 23 29 41 48 48 43 43 43 44 45 45 45 41 38 34 30 25 22 20 19 20 19 21 18 17 16 14
22 12 10 13 19 19 17 21 22 22 18 17 12 9 10 10 10 21 25 28 27 23 22 24 33 43 49 46 42 44 44 45 46 43 43 39 35 33 26 22 21 19 20 19 20 18 19 17 16
4 6 13 13 17 16 17 21 21 24 20 19 14 11 10 10 11 14 18 23 26 28 27 20 30 36 45 47 47 47 44 43 42 43 43 39 38 31 24 23 22 20 17 16 19 19 18 19 15
12 10 16 19 9 12 12 24 27 20 18 19 19 13 11 10 12 12 28 24 29 31 34 24 27 31 39 45 46 45 42 39 40 39 36 34 35 29 28 24 22 19 17 18 19 16 15 16 15
2 6 18 20 18 9 6 33 20 12 12 13 13 16 18 21 16 26 31 28 28 26 29 30 27 28 36 40 42 40 38 38 37 34 32 30 28 28 28 25 19 17 17 19 18 17 17 18 18
6 16 19 21 8 5 13 42 13 12 15 13 12 15 17 20 13 22 36 40 28 24 26 30 23 24 32 36 36 35 35 36 33 31 32 28 27 28 27 23 18 17 15 17 18 19 18 18 18
11 22 16 14 6 17 21 33 19 21 23 22 23 24 22 22 18 22 33 40 32 24 29 23 20 24 28 29 27 31 30 29 29 28 28 27 28 27 24 19 15 15 16 17 18 19 18 18 18
8 11 14 2 11 16 20 21 19 16 13 12 17 18 20 20 19 25 31 29 20 21 21 19 22 26 27 29 27 27 26 25 24 24 25 22 29 23 26 20 15 17 20 22 21 20 17 17 14
13 14 19 6 9 10 12 23 25 23 22 19 23 21 15 9 12 12 15 14 22 22 21 22 25 27 28 28 30 28 29 25 22 24 22 22 24 22 23 16 17 18 18 17 17 16 12 10 9
15 18 16 11 12 22 9 17 13 18 13 12 10 12 11 12 14 11 9 17 21 25 26 25 26 27 26 26 26 23 22 20 17 19 19 22 22 23 19 16 15 13 13 12 10 12 12 10 12
19 11 12 17 12 14 7 19 17 19 23 16 15 11 10 17 9 10 8 7 22 25 21 22 23 23 24 27 26 27 22 16 14 19 16 17 21 20 17 13 10 11 11 10 9 10 12 11 11
19 13 11 16 10 9 16 4 33 11 19 18 14 11 18 16 11 12 11 10 16 25 25 23 25 25 28 27 27 27 22 18 15 15 14 16 17 14 11 9 9 9 9 8 8 8 14 15 15
7 8 13 16 3 10 15 9 29 17 21 11 8 12 10 12 10 2 6 20 19 25 26 28 28 28 28 25 25 24 19 15 18 17 19 17 13 11 9 8 8 7 8 8 8 9 12 15 15
5 1 2 3 5 16 14 11 23 6 6 11 16 16 16 12 6 9 12 12 16 21 27 30 30 27 25 24 23 21 17 18 20 19 17 14 11 11 11 10 10 9 8 8 8 9 10 11 12
6 9 5 9 4 5 9 10 9 16 26 26 20 14 11 8 7 9 12 13 16 21 25 26 28 25 27 25 23 21 19 20 18 15 13 11 8 6 8 9 9 8 6 6 7 8 9 9 11
5 8 7 5 15 2 6 15 17 21 26 22 17 9 7 6 8 11 10 11 19 20 23 29 29 27 27 25 22 18 16 15 13 10 10 7 6 7 9 9 8 7 7 7 8 8 9 10 9
6 3 1 2 6 10 6 7 8 9 16 7 10 9 8 7 11 12 12 12 17 22 28 28 28 28 25 23 19 16 14 13 10 9 8 8 9 10 10 8 8 7 8 8 9 10 8 7 6
2 3 3 4 3 7 4 9 7 19 11 14 12 12 16 14 15 13 13 14 19 22 26 27 26 25 23 21 18 15 15 13 12 9 12 11 11 11 8 8 7 8 7 7 7 6 6 9 7
10 6 5 3 8 5 9 20 14 14 16 12 11 16 15 17 14 14 14 12 17 20 23 26 25 24 23 20 18 17 15 15 12 11 11 12 13 10 8 8 7 6 5 4 4 7 8 8 7

GFSSGP_925_spd_042.txt.gz
Wind_Speed
9 5 4 3 3 4 3 7 3 3 2 2 2 6 10 3 7 5 3 26 16 31 32 34 32 30 27 26 25 25 25 23 22 21 20 19 18 17 16 14 13 12 10 8 5 3 2 1 1
11 10 4 2 4 1 5 5 6 7 3 8 1 3 4 7 4 3 6 26 17 31 34 36 34 31 28 28 27 26 25 23 21 19 18 17 17 16 15 14 12 11 10 9 7 5 3 1 2
11 3 4 4 4 6 5 4 5 3 7 5 3 2 4 5 3 3 4 29 20 31 33 37 36 32 30 30 28 27 25 23 22 20 18 17 15 14 13 12 11 10 10 9 7 5 3 2 2
5 2 3 3 7 7 6 2 3 9 3 6 4 3 2 4 5 11 14 29 22 30 34 36 37 34 32 30 29 28 26 24 22 21 19 17 15 14 12 10 9 10 9 9 7 5 4 3 3
2 1 2 3 5 6 6 6 5 6 5 5 3 4 2 2 6 15 21 30 25 31 35 36 36 35 34 31 31 31 29 26 25 21 20 19 17 15 14 12 10 10 10 9 8 6 5 7 7
1 2 1 7 7 5 6 8 3 5 5 3 1 4 3 2 11 19 22 28 26 30 35 37 36 36 34 35 34 33 32 29 27 24 22 21 20 17 15 13 12 12 11 10 8 6 5 8 8
4 3 5 4 4 4 5 4 4 4 5 2 3 6 4 3 10 13 20 26 23 26 33 35 37 39 36 35 36 36 34 32 29 28 26 24 22 20 17 15 13 13 12 10 8 7 7 7 8
4 3 4 6 5 6 5 3 4 3 3 4 4 2 4 5 14 11 16 23 22 25 30 33 36 39 38 38 38 37 35 34 33 31 30 27 25 23 20 17 15 13 12 11 9 8 8 6 8
5 1 5 7 8 5 2 1 4 3 2 1 4 2 6 4 13 14 15 20 22 24 28 32 36 37 40 40 39 39 37 37 35 34 32 30 30 27 24 21 18 16 13 12 11 10 8 7 7
5 5 10 6 10 4 3 3 2 3 5 1 2 3 13 8 3 6 9 16 22 24 30 33 36 40 40 41 40 39 39 39 39 38 37 36 34 30 27 24 21 18 16 14 13 11 10 9 8
8 12 14 6 5 4 8 8 1 4 4 8 4 3 8 4 5 9 14 21 29 37 34 37 38 38 41 43 43 41 41 43 42 42 41 39 36 32 30 27 24 21 18 17 16 15 14 12 11
5 13 16 5 7 3 9 6 8 7 11 7 9 9 4 8 8 9 16 27 33 34 36 38 39 41 42 43 45 45 45 47 47 46 44 42 39 36 34 30 27 24 21 19 17 16 16 16 14
15 4 8 19 11 10 6 17 11 18 13 14 14 12 11 10 9 18 24 25 27 30 38 37 37 42 45 45 45 46 48 47 45 45 46 43 41 39 36 31 29 25 23 20 19 18 17 17 16
3 11 14 7 6 4 5 13 5 1 9 11 11 17 10 10 10 15 16 22 21 24 26 30 35 39 42 46 47 51 45 42 42 44 45 43 41 38 36 33 31 28 24 22 22 19 19 19 18
2 5 4 6 4 7 7 25 31 17 13 15 19 21 17 11 14 12 27 19 21 24 28 29 29 32 39 42 45 45 46 45 44 44 43 39 39 38 33 35 34 30 26 26 22 19 20 19 20
4 5 15 15 8 6 10 33 18 14 17 22 20 16 14 18 11 21 25 23 25 29 36 39 35 28 28 37 42 43 43 43 42 40 37 34 33 34 33 35 34 29 27 23 22 20 21 19 19
4 15 11 8 9 9 16 31 7 4 7 12 10 9 10 11 10 20 24 26 31 36 35 37 33 29 30 33 37 38 37 37 36 33 30 28 28 30 30 33 30 28 24 23 21 21 21 19 18
9 10 2 6 6 14 14 29 14 13 15 17 14 15 15 13 14 17 24 30 34 36 40 38 36 31 28 28 28 28 30 28 29 28 27 24 26 26 27 25 25 23 19 19 18 19 19 19 19
4 2 1 0 3 4 17 21 16 9 11 13 16 17 20 21 17 19 28 31 35 39 37 36 33 30 23 24 25 24 26 25 23 23 20 21 22 23 22 23 20 19 19 17 16 17 17 17 19
6 1 3 5 9 5 5 14 10 7 10 11 17 18 16 14 9 10 20 32 33 32 35 32 30 23 22 26 25 15 20 17 20 17 17 18 22 21 22 21 22 21 20 17 15 16 11 10 10
5 8 3 6 7 12 9 16 15 12 12 16 17 16 12 16 12 13 13 18 28 31 33 28 25 18 20 24 21 14 13 10 16 19 19 20 21 21 22 22 21 20 18 16 16 16 14 8 10
4 6 2 1 3 6 3 12 14 13 19 15 14 15 17 9 12 15 11 11 24 33 28 24 17 17 20 21 22 23 18 13 15 24 22 21 21 22 22 19 17 16 15 15 13 12 13 11 11
12 11 9 6 6 3 1 5 14 4 13 15 19 23 21 14 15 11 11 15 29 27 22 17 13 16 20 21 21 23 23 19 21 20 21 20 19 21 19 13 14 14 12 12 11 11 13 15 11
1 5 4 3 3 7 6 7 25 10 16 12 13 16 13 13 10 11 11 16 20 14 12 14 16 19 21 22 23 25 27 25 24 22 20 17 17 16 16 14 13 12 11 11 11 11 12 13 12
3 4 2 1 2 11 14 9 24 5 5 5 3 9 10 9 9 10 10 7 7 10 12 16 20 21 22 23 25 25 25 26 26 24 22 19 18 16 16 15 14 11 10 10 10 10 11 10 13
6 8 4 6 5 5 7 12 11 12 21 13 8 10 9 9 9 10 9 7 7 11 17 20 23 24 23 23 23 22 21 23 23 22 21 20 17 16 15 13 11 10 9 8 8 9 8 10 11
4 4 6 2 1 0 4 11 11 13 18 14 4 7 10 10 10 10 4 6 10 14 18 23 26 25 24 24 22 21 20 20 19 18 17 16 13 11 12 12 11 10 8 7 7 6 7 9 10
7 6 4 2 4 5 4 5 8 7 6 6 8 11 12 11 10 3 5 9 12 19 23 25 26 26 24 23 22 21 20 20 20 19 16 13 11 11 12 12 11 9 8 6 5 5 7 9 11
3 1 2 4 4 4 2 5 7 6 6 3 7 8 11 15 10 7 8 10 15 21 23 26 27 27 27 26 25 24 22 19 17 15 13 12 12 13 13 11 9 8 7 6 6 7 10 11 10
4 4 1 5 5 7 3 7 3 7 7 8 13 13 13 8 3 5 10 12 13 16 19 23 26 29 29 26 25 22 20 17 15 13 13 14 15 12 10 9 8 7 6 5 5 7 8 10 12

GFSSGP_925_spd_045.txt.gz
Wind_Speed
10 5 5 2 4 2 4 5 4 4 3 3 4 4 17 6 13 3 2 20 14 30 30 34 32 32 31 29 27 24 22 21 20 19 18 17 16 15 14 13 12 10 9 8 7 6 5 5 4
10 7 3 1 3 6 5 6 8 10 5 12 7 5 9 8 5 3 5 22 17 29 30 34 33 32 31 30 28 26 24 22 21 19 18 17 16 14 13 12 11 10 9 9 8 6 5 4 4
10 2 3 3 4 10 4 6 10 0 13 11 3 3 4 4 6 2 5 25 20 28 29 34 33 33 31 30 29 28 27 26 24 22 20 19 18 16 16 15 14 12 11 9 9 8 6 4 2
5 3 1 5 13 11 7 1 3 11 5 2 6 3 2 5 2 6 14 24 20 27 29 32 32 34 33 31 29 29 29 28 27 25 24 22 20 19 17 16 14 13 12 10 9 6 6 5 2
1 1 5 6 16 8 8 10 7 11 7 8 5 3 3 2 5 14 21 26 22 25 27 32 33 35 35 32 32 31 30 30 28 26 25 23 22 21 19 17 15 14 13 11 10 8 7 6 6
3 2 5 15 16 12 11 9 7 13 13 8 5 2 3 1 7 13 18 24 20 23 27 31 35 36 36 33 31 30 30 30 28 28 27 25 24 22 20 18 15 13 12 12 10 9 7 6 6
5 3 8 7 9 15 16 9 11 10 6 5 2 2 1 3 6 13 16 20 20 20 26 31 30 37 36 33 32 31 32 31 29 29 28 27 25 23 21 18 16 14 12 12 11 9 8 6 6
5 3 11 9 13 15 4 4 3 9 5 3 0 1 3 2 7 12 12 16 18 19 24 29 31 28 32 31 35 33 33 32 31 31 30 27 25 25 22 20 17 15 13 12 11 10 8 7 5
4 7 13 19 14 10 2 6 3 3 5 2 1 2 5 5 8 9 10 12 13 17 21 25 28 28 26 24 26 35 35 35 34 33 32 30 24 23 22 21 19 17 14 12 12 10 9 7 6
10 11 20 11 15 8 13 7 4 4 4 3 4 7 6 5 4 2 5 12 17 19 24 27 31 32 28 28 28 28 27 29 32 31 29 31 25 23 22 22 21 18 15 12 12 11 10 8 7
11 20 20 17 18 13 20 17 8 8 12 12 8 1 7 10 5 5 7 12 16 20 18 25 30 32 29 27 28 30 28 29 30 32 33 28 23 22 22 19 19 17 17 13 13 13 12 12 10
15 21 22 15 11 8 17 15 13 16 22 13 13 11 12 14 11 11 14 14 16 16 22 23 27 30 31 31 32 33 31 31 31 29 31 30 27 25 25 22 20 19 17 17 15 15 15 14 13
25 23 14 22 15 13 11 21 19 20 20 19 20 18 19 18 15 16 13 19 21 19 27 26 27 29 33 35 36 38 40 34 33 30 31 34 29 25 24 23 22 21 23 22 16 15 12 13 14
13 20 22 16 15 15 18 28 18 16 14 18 14 18 19 17 15 13 14 19 19 23 26 24 21 25 30 35 38 43 39 34 30 30 30 31 29 26 27 27 25 27 29 23 15 12 13 16 14
18 19 13 18 23 16 6 24 36 22 19 24 23 22 21 19 20 17 19 20 19 21 19 21 25 25 27 35 39 38 37 32 30 27 26 26 28 25 24 25 26 29 26 24 20 15 15 14 17
11 17 22 26 11 9 15 31 34 17 21 26 25 23 21 18 15 18 19 17 19 19 20 27 30 29 28 30 34 32 26 26 24 23 21 23 25 26 23 25 25 27 20 24 16 14 15 16 15
14 21 26 24 22 15 19 35 27 17 15 18 16 15 15 15 14 16 17 16 22 23 29 35 30 29 27 26 25 24 22 22 20 19 19 20 21 23 23 21 22 24 18 23 16 15 16 17 16
18 24 21 18 13 22 24 34 23 17 16 18 17 17 19 19 19 21 17 23 27 30 33 33 29 24 19 17 16 15 17 18 17 17 18 18 19 20 20 17 17 18 18 18 20 16 13 13 11
10 13 19 18 9 21 25 28 24 19 22 24 24 21 21 21 18 22 23 23 24 26 29 30 23 17 11 9 11 14 18 16 16 16 16 17 18 18 18 16 15 20 22 23 19 13 12 11 10
22 18 10 8 9 8 16 21 16 15 19 20 21 22 23 22 20 16 21 22 23 24 30 29 25 19 13 11 12 9 14 12 13 13 14 15 17 18 17 17 22 23 18 16 16 14 8 8 8
18 22 20 10 6 12 12 22 23 22 20 21 23 22 23 20 20 18 17 21 22 21 28 26 23 19 14 13 13 11 11 8 11 13 13 16 16 16 16 18 21 19 17 17 14 12 11 8 7
19 11 15 20 12 13 4 11 16 17 18 19 19 20 21 20 18 19 19 18 23 25 20 21 20 15 12 17 17 19 13 12 10 15 14 14 15 15 18 19 18 17 15 14 13 13 11 9 8
18 11 9 5 9 11 18 10 16 12 20 19 16 20 21 22 21 21 22 21 27 21 18 21 13 10 13 18 18 18 12 9 13 15 17 14 14 14 17 17 17 16 15 15 11 11 12 12 10
13 16 21 17 13 15 16 12 23 17 21 18 17 15 13 16 17 17 19 22 23 19 14 9 10 10 14 16 16 16 17 16 17 17 17 15 14 13 15 15 15 15 14 11 9 8 10 11 10
9 12 9 10 11 17 11 13 23 9 6 1 8 15 15 11 12 13 14 13 15 13 9 9 12 14 16 15 15 15 18 19 20 20 18 17 15 14 15 14 14 12 10 8 8 10 10 11 10
15 14 7 15 12 15 13 13 9 10 16 12 8 7 10 12 11 12 13 11 12 10 10 12 15 17 17 16 16 16 20 18 18 17 17 15 14 13 15 13 12 10 8 8 9 9 10 9 11
12 10 16 5 1 8 10 17 16 16 14 12 12 8 13 17 17 16 14 7 6 9 12 16 19 19 19 19 19 17 17 17 17 17 15 14 12 13 13 12 10 9 9 9 9 10 10 9 10
14 10 9 7 6 8 9 15 9 3 9 9 12 14 17 17 21 18 8 3 4 10 15 18 20 21 21 20 20 18 17 17 18 17 15 14 13 12 12 10 10 10 10 10 10 9 9 9 7
7 7 8 9 12 4 3 3 4 7 9 8 12 17 18 18 20 14 5 2 8 15 18 20 20 22 21 20 19 19 18 17 17 15 14 13 12 11 11 11 11 11 11 10 10 9 8 7 6
3 4 7 8 20 11 10 5 6 9 8 13 17 20 19 17 18 11 3 3 10 16 20 20 21 21 21 20 20 19 18 16 15 13 13 13 13 12 12 11 10 10 9 9 8 8 7 7 6